Location: Kershaw
(34.5481°N, 80.5823°W)
Time: 15:40:30
(UTC+00:00)

Transit 4A - Pass Details

Date: 11 October 2022
Orbit: 871 x 972 km, 66.8° (Epoch: 29 November)

Event Time Altitude Azimuth Distance (km) Brightness Sun altitude
Rises 11:58:05 0° 317° (NW) 3,466 10.4 5.9°
Reaches altitude 10° 12:01:07 10° 302° (WNW) 2,520 9.6 6.5°
Maximum altitude 12:05:22 21° 254° (WSW) 1,839 9.1 7.4°
Drops below altitude 10° 12:09:37 10° 207° (SSW) 2,518 10.1 8.2°
Sets 12:12:40 0° 192° (SSW) 3,462 10.9 8.8°
